User: anonymous   Login
Location: Unspecified
(0.0000°N, 0.0000°E)
Time: 11:39:14
(UTC+00:00)
Language:

Kosmos-1535 - Orbit

View from above orbital plane
View from above orbital plane
View from above satellite
View from above satellite

Ground track
Ground track

The orbit data is extracted from the following two-line orbital elements,

1 14679U 84010A   18018.84841928 +.00000077 +00000-0 +64808-4 0  9996
2 14679 082.9580 265.8779 0040749 269.4790 137.5947 13.75078364672742
Epoch (UTC): 18 January 2018 20:21:43
Eccentricity: 0.0040749
inclination: 82.9580°
perigee height: 951 km
apogee height: 1011 km
right ascension of ascending node: 265.8779°
argument of perigee: 269.4790°
revolutions per day: 13.75078364
mean anomaly at epoch: 137.5947°
orbit number at epoch: 67274

The dashed part of the orbit path shows where the satellite is in the earth's shadow,  

DLR